Lexington Weather

Lexington, Massachusetts, USA

46°F
10/26/2020 6:35am 
  • Lexington Conditions: Light rain, Overcast
  • Temperature: 46.0°F / 7.8°CWarmer 0.3°F than last hour.
  • Dew Point: 42.6°FIncreased 2.1°Fsince last hour.
  • Relative Humidity: 88%Increased 6.0% since last hour.
  • Wind: Wind from N N Calm, 10-min avg: 1 mph, gust: 2 mph
  • Barometer: 30.27 in Steady
  • Visibility: 10 miles
  • Rain Today: 0.00 in
  •   

Regional Weather Roundup
for Boston / Norton, MA

        
000
ASUS41 KBOX 242304
RWRBOX

REGIONAL WEATHER ROUNDUP
NATIONAL WEATHER SERVICE BOSTON/NORTON MA
700 PM EDT SAT OCT 24 2020

NOTE:  "FAIR" INDICATES FEW OR NO CLOUDS BELOW 12,000 FEET WITH NO 
SIGNIFICANT WEATHER AND/OR OBSTRUCTIONS TO VISIBILITY.

MAZALL-250000-
EASTERN MASSACHUSETTS
  
CITY           SKY/WX    TMP DP  RH WIND       PRES   REMARKS
BOSTON         MOCLDY    60  48  64 NW17      29.89R                  
BEVERLY        CLOUDY    58  46  64 NW15G24   29.89R                  
LAWRENCE       CLEAR     55  44  66 NW5       29.93R                  
BEDFORD        CLEAR     57  46  66 N14       29.90R                  
BLUE HILL        N/A     60  53  77 N13G22    29.88R                  
NORWOOD        CLOUDY    64  53  67 N13       29.88R                  
MARSHFIELD     CLOUDY    66  63  88 SW5       29.86R                  
PLYMOUTH       CLOUDY    64  59  83 SW5       29.87R                  
TAUNTON        CLOUDY    65  60  84 CALM      29.87R                  
NEW BEDFORD    CLOUDY    64  61  90 SW6       29.87R                  
$$

MAZALL-250000-
CAPE COD AND THE ISLANDS
  
CITY           SKY/WX    TMP DP  RH WIND       PRES   REMARKS
FALMOUTH       MOCLDY    63  61  94 W12       29.87R                  
HYANNIS        CLOUDY    63  61  93 SW8       29.85R                  
CHATHAM        CLOUDY    63  60  90 VRB3      29.88R                  
PROVINCETOWN   MOCLDY    61  59  93 W7        29.86R                  
NANTUCKET      CLOUDY   N/A N/A N/A W10       29.88R                  
MARTHAS VNYRD  PTCLDY    63  60  90 W8        29.88R                  
$$
 
MAZALL-250000-
CENTRAL AND WESTERN MASSACHUSETTS
  
CITY           SKY/WX    TMP DP  RH WIND       PRES   REMARKS
WORCESTER      CLEAR     56  46  69 NW7       29.92R                  
FITCHBURG      CLEAR     56  46  69 N9        29.93R                  
ORANGE         CLEAR     54  44  69 N9        29.95R                  
SPRINGFIELD    PTCLDY    56  43  61 N13       29.93R                  
WESTFIELD      CLEAR     55  43  63 NW12      29.95R                  
NORTH ADAMS    CLOUDY    51  40  65 W9        30.00R                  
PITTSFIELD     CLOUDY    47  38  71 NW13G22   29.99R                  
$$
 
RIZALL-250000-
RHODE ISLAND
  
CITY           SKY/WX    TMP DP  RH WIND       PRES   REMARKS
PROVIDENCE     CLOUDY    64  58  80 W7        29.89R                  
NEWPORT        CLOUDY    62  61  96 W5        29.88R                  
BLOCK ISLAND   CLOUDY    62  57  83 W6        29.91R                  
SMITHFIELD     CLOUDY    62  55  77 NW7       29.89R                  
WESTERLY       CLOUDY    62  54  74 CALM      29.91R                  
$$
 
CTZALL-250000-
CONNECTICUT
  
CITY           SKY/WX    TMP DP  RH WIND       PRES   REMARKS
BRADLEY INTL   PTCLDY    55  43  63 NW13      29.94R                  
HARTFORD       CLEAR     59  43  55 NW8       29.94R                  
BRIDGEPORT     PTCLDY    59  46  62 NW7       29.93R                  
DANBURY        CLEAR     55  41  59 VRB5      29.96R                  
GROTON         PTCLDY    59  51  75 NW7       29.91R                  
NEW HAVEN      PTCLDY    61  42  49 N12       29.93R                  
CHESTER        FAIR      57  48  72 NW7       29.93R                  
MERIDEN        CLEAR     57  42  57 NW10      29.94R                  
WILLIMANTIC    CLEAR     59  47  64 NW6       29.92R                  
OXFORD         CLEAR     53  41  63 NW10      29.96R                  
$$

MEZ002-015-021-024-NHZ003-005-008-011-012-014-VTZ005-008-250000-
NORTHERN NEW ENGLAND
  
CITY           SKY/WX    TMP DP  RH WIND       PRES   REMARKS
PORTLAND ME    MOCLDY    56  44  64 N18       29.89R                  
BANGOR ME      CLOUDY    50  38  63 NW23G29   29.91R                  
CONCORD NH     CLEAR     50  38  63 NW9G21    29.95R                  
MANCHESTER NH  CLEAR     54  36  50 NW16G24   29.92R                  
NASHUA NH      CLEAR     54  45  71 N8G16     29.94R                  
PORTSMOUTH NH  PTCLDY    55  40  58 W13       29.88                   
JAFFREY NH     CLEAR     51  40  65 VRB5      29.95R                  
KEENE NH       CLEAR     52  40  63 N8        29.97R                  
BURLINGTON VT  CLOUDY    47  31  53 NW14      30.08R                  
MT. WASHINGTON NOT AVBL                                               
$$

NYZ052-076-250000-
EASTERN NEW YORK
  
CITY           SKY/WX    TMP DP  RH WIND       PRES   REMARKS
ALBANY         MOCLDY    45  37  73 W16G25    30.05R                  
NEW YORK CITY  MOCLDY    63  46  54 NW14      29.95R                  
$$
 
ANZALL-250000-
MARINE OBSERVATIONS
  
STATION/POSITION TIME  TEMP    WIND        PRES    VSBY  WAVE
                       AIR SEA DIR/SP/G                  HT/PER
                 (UTC) (F)     (DEG/KT/KT) (MB)    (MI)  (FT/S)
BOSTON BUOY      2250   61 59  350/ 17/ 19 1010.0R         5/13
BUZZARDS BAY     2200          250/ 13/ 14 1012.4R
NANTUCKET SOUND  2250      62  260/ 10/ 12   N/A           2/ 3
MASS BAY-STELLWA 2204   61 58  320/ 12/ 21 1009.8R  1 7/8  6/11
ISLE OF SHOALS   2200   60     300/ 19/ 21 1010.4R
S OF BLOCK IS    2226      63                N/A           6/13
$$

......................KEY.........................
  SKY/WX - SKY CONDITION/PRESENT WEATHER
  TMP    - TEMPERATURE IN FAHRENHEIT
  DWPT   - DEWPOINT IN FAHRENHEIT
  RH     - RELATIVE HUMIDITY IN PERCENT
  WIND   - DIRECTION AND SPEED IN MPH
  PRES   - MEAN SEA LEVEL PRESSURE IN INCHES OF HG
  WCI    - WIND CHILL INDEX
  VSB    - VISIBILITY IN MILES
  HX     - HEAT INDEX
  TC     - TEMPERATURE IN CELSIUS
  VRB    - VARIABLE WIND DIRECTION
  N/A    - NOT AVAILABLE
  
      

Other recent Regional Weather Roundups

Mon Oct 26, 6:04am

Mon Oct 26, 5:04am

Mon Oct 26, 4:04am

Mon Oct 26, 3:04am

Mon Oct 26, 2:04am

Mon Oct 26, 1:04am

Mon Oct 26, 12:04am

Sun Oct 25, 11:05pm

Sun Oct 25, 10:04pm

Sun Oct 25, 9:04pm

Sun Oct 25, 8:04pm

Sun Oct 25, 7:04pm

Sun Oct 25, 6:04pm

Sun Oct 25, 5:04pm

Sun Oct 25, 4:05pm

Sun Oct 25, 3:04pm

Sun Oct 25, 2:04pm

Sun Oct 25, 1:04pm

Sun Oct 25, 12:04pm

Sun Oct 25, 11:04am

Sun Oct 25, 10:04am

Sun Oct 25, 9:04am

Sun Oct 25, 8:04am

Sun Oct 25, 7:04am

Sun Oct 25, 6:04am

Sun Oct 25, 5:04am

Sun Oct 25, 4:04am

Sun Oct 25, 3:04am

Sun Oct 25, 2:04am

Sun Oct 25, 1:05am

Sun Oct 25, 12:04am

Sat Oct 24, 11:04pm

Sat Oct 24, 10:04pm

Sat Oct 24, 9:04pm

Sat Oct 24, 8:04pm

Sat Oct 24, 6:04pm

Sat Oct 24, 5:05pm

Sat Oct 24, 4:04pm

Sat Oct 24, 3:04pm

Sat Oct 24, 2:04pm

Sat Oct 24, 1:05pm

Sat Oct 24, 12:04pm

Sat Oct 24, 11:05am

Sat Oct 24, 10:05am

Sat Oct 24, 9:04am

Sat Oct 24, 8:04am

Sat Oct 24, 7:04am

Sat Oct 24, 6:04am

Sat Oct 24, 5:04am

Sat Oct 24, 4:04am

Sat Oct 24, 3:04am

Sat Oct 24, 2:04am

Sat Oct 24, 1:05am

Sat Oct 24, 12:04am

Fri Oct 23, 11:04pm

Fri Oct 23, 10:04pm

Fri Oct 23, 9:04pm

Fri Oct 23, 8:05pm

Fri Oct 23, 7:04pm

Fri Oct 23, 6:04pm

Fri Oct 23, 5:05pm

Fri Oct 23, 4:04pm

Fri Oct 23, 3:04pm

Fri Oct 23, 2:05pm

Fri Oct 23, 1:04pm

Fri Oct 23, 12:04pm

Fri Oct 23, 11:04am

Fri Oct 23, 10:04am

Fri Oct 23, 9:04am

Fri Oct 23, 8:04am

Fri Oct 23, 7:04am

Fri Oct 23, 6:04am

Fri Oct 23, 5:04am

Fri Oct 23, 4:04am

Fri Oct 23, 3:04am

Fri Oct 23, 2:04am

Fri Oct 23, 1:04am

Fri Oct 23, 12:04am

Thu Oct 22, 11:04pm

Thu Oct 22, 10:04pm

Thu Oct 22, 9:05pm

Thu Oct 22, 8:04pm

Thu Oct 22, 7:05pm

Thu Oct 22, 6:04pm

Thu Oct 22, 5:04pm

Thu Oct 22, 4:05pm

Thu Oct 22, 3:04pm

Thu Oct 22, 2:05pm

Thu Oct 22, 1:04pm

Thu Oct 22, 12:04pm

Thu Oct 22, 11:04am

Thu Oct 22, 10:05am

Thu Oct 22, 9:04am

Thu Oct 22, 8:05am

Thu Oct 22, 7:04am

Thu Oct 22, 6:04am

Thu Oct 22, 5:04am

Thu Oct 22, 4:04am

Thu Oct 22, 3:04am

Thu Oct 22, 2:04am

Thu Oct 22, 1:04am

Thu Oct 22, 12:04am

Wed Oct 21, 11:05pm

Wed Oct 21, 10:04pm

Wed Oct 21, 9:04pm

Wed Oct 21, 8:04pm

Wed Oct 21, 7:04pm

Wed Oct 21, 6:04pm

Wed Oct 21, 5:05pm

Wed Oct 21, 4:04pm

Wed Oct 21, 3:04pm

Wed Oct 21, 2:05pm

Wed Oct 21, 1:04pm

Wed Oct 21, 12:04pm

Wed Oct 21, 11:04am

Wed Oct 21, 10:04am

Wed Oct 21, 9:04am

Wed Oct 21, 8:04am

Wed Oct 21, 7:04am

Wed Oct 21, 6:04am

Wed Oct 21, 5:04am

Wed Oct 21, 4:04am

Wed Oct 21, 3:04am

Wed Oct 21, 2:04am

Wed Oct 21, 1:04am

Wed Oct 21, 12:04am

Tue Oct 20, 11:05pm

Tue Oct 20, 10:04pm

Tue Oct 20, 9:04pm

Tue Oct 20, 8:05pm

Tue Oct 20, 7:04pm

Tue Oct 20, 6:04pm

Tue Oct 20, 5:05pm

Tue Oct 20, 4:04pm

Tue Oct 20, 3:05pm

Tue Oct 20, 2:07pm

Tue Oct 20, 1:04pm

Tue Oct 20, 12:04pm

Tue Oct 20, 11:04am

Tue Oct 20, 10:05am

Tue Oct 20, 9:04am

Tue Oct 20, 8:04am

Tue Oct 20, 7:04am

Tue Oct 20, 6:04am

Tue Oct 20, 5:04am

Tue Oct 20, 4:04am

Tue Oct 20, 3:04am

Tue Oct 20, 2:04am

Tue Oct 20, 1:04am

Tue Oct 20, 12:04am

Mon Oct 19, 11:04pm

Mon Oct 19, 10:04pm

Mon Oct 19, 9:04pm

Mon Oct 19, 8:04pm

Mon Oct 19, 7:04pm

Mon Oct 19, 6:04pm

Mon Oct 19, 5:04pm

Mon Oct 19, 4:04pm

Mon Oct 19, 3:04pm

Mon Oct 19, 2:04pm

Mon Oct 19, 1:05pm

Mon Oct 19, 12:04pm

Mon Oct 19, 11:04am

Mon Oct 19, 10:04am

Mon Oct 19, 9:04am

Mon Oct 19, 8:04am

Mon Oct 19, 7:04am

Mon Oct 19, 6:04am

Mon Oct 19, 5:04am

Meta data:

ID: 4964ff94-9f7e-496f-a864-acb066983083
Link: https://api.weather.gov/products/4964ff94-9f7e-496f-a864-acb066983083